EW3726 Weather Reports


Display with metric or nautical units.
time (UTC)temp
F
wind
direction
speed
MPH
gust
MPH
rain 1hr
in
rain 24hr
in
rain mn
in
humidity
%
barometer
mb
20200219234558 29 39 0.0 1.0 0.00 0.42 0.05 47 1024.0
20200219233222 31 263 0.0 1.0 0.00 0.42 0.05 43 1023.9
20200219231623 32 89 0.0 1.0 0.00 0.42 0.05 41 1023.7
20200219230136 33 254 1.0 4.0 0.00 0.56 0.05 37 1023.3
20200219224554 34 3.0 10.0 0.00 0.56 0.05 35 1022.9
20200219223127 34 256 3.0 13.0 0.00 0.56 0.05 35 1022.6
20200219221636 35 29 5.0 17.0 0.00 0.56 0.05 33 1022.5
20200219220053 36 314 7.0 17.0 0.00 0.66 0.05 33 1022.2
20200219214533 37 217 6.0 19.0 0.00 0.66 0.05 32 1022.0
20200219213038 37 288 4.0 13.0 0.00 0.66 0.05 33 1021.6
20200219211544 37 180 6.0 19.0 0.00 0.66 0.05 32 1021.5
20200219210037 37 285 11.0 22.0 0.00 0.67 0.05 31 1021.4
20200219204549 38 162 4.0 19.0 0.00 0.67 0.05 33 1021.1
20200219203022 38 89 7.0 19.0 0.00 0.67 0.05 32 1021.0
20200219201520 38 243 7.0 17.0 0.00 0.67 0.05 33 1020.8
20200219200047 38 271 8.0 17.0 0.00 0.67 0.05 34 1020.5
20200219194528 38 94 5.0 18.0 0.00 0.67 0.05 34 1020.2
20200219193012 38 262 5.0 22.0 0.00 0.67 0.05 35 1019.9
20200219191509 38 56 10.0 18.0 0.00 0.67 0.05 34 1019.7
20200219190034 38 305 11.0 25.0 0.00 0.67 0.05 35 1019.8
20200219184506 38 285 7.0 17.0 0.00 0.67 0.05 36 1019.6
20200219183015 38 11 4.0 15.0 0.00 0.67 0.05 40 1019.4
20200219181505 38 44 7.0 21.0 0.00 0.67 0.05 41 1019.3
20200219180001 38 148 9.0 22.0 0.00 0.67 0.05 41 1019.3
20200219174650 38 27 8.0 26.0 0.00 0.67 0.05 42 1019.4
20200219173136 38 44 8.0 18.0 0.00 0.67 0.05 44 1019.3
20200219171806 38 38 6.0 25.0 0.00 0.67 0.05 45 1019.3
20200219170117 39 140 5.0 15.0 0.01 0.67 0.05 48 1019.2
20200219164604 39 117 10.0 27.0 0.01 0.67 0.05 46 1019.1
20200219163211 38 131 8.0 22.0 0.02 0.67 0.05 51 1019.1
20200219161602 38 338 3.0 20.0 0.02 0.67 0.05 55 1019.1
20200219160104 39 57 7.0 15.0 0.01 0.66 0.04 54 1019.1
20200219154649 38 140 4.0 14.0 0.01 0.66 0.04 57 1019.0
20200219153150 38 161 3.0 12.0 0.00 0.65 0.03 60 1018.9
20200219151637 38 146 4.0 12.0 0.00 0.65 0.03 61 1018.9
20200219150108 38 44 7.0 18.0 0.01 0.65 0.03 63 1019.0
20200219144622 38 88 3.0 17.0 0.01 0.65 0.03 64 1018.8
20200219143057 38 202 2.0 9.0 0.01 0.65 0.03 69 1018.7
20200219141554 38 234 4.0 11.0 0.01 0.65 0.03 66 1018.6
20200219140030 38 103 0.0 2.0 0.01 0.65 0.03 69 1018.3
20200219134553 38 4 1.0 4.0 0.00 0.64 0.02 68 1018.2
20200219133035 38 230 2.0 5.0 0.00 0.64 0.02 70 1018.1
20200219131523 37 356 1.0 3.0 0.00 0.64 0.02 75 1017.9
20200219130105 37 82 2.0 4.0 0.00 0.64 0.02 76 1017.7
20200219124525 36 22 0.0 1.0 0.00 0.64 0.02 81 1017.5
20200219123009 34 195 0.0 0.0 0.00 0.64 0.02 88 1017.4
20200219121504 0 0.0 0.0 0.00 0.64 0.02 1017.2
20200219120147 0 0.0 0.0 0.00 0.64 0.02 1017.0
20200219114728 0 0.0 0.0 0.00 0.64 0.02 1016.5
20200219113108 0 0.0 0.0 0.00 0.64 0.02 1016.3
20200219111635 0 0.0 0.0 0.00 0.64 0.02 1016.3
20200219110102 0 0.0 0.0 0.00 0.64 0.02 1016.0
20200219104618 0 0.0 0.0 0.00 0.64 0.02 1015.6
20200219103103 0 0.0 0.0 0.00 0.64 0.02 1015.6
20200219101545 0 0.0 0.0 0.00 0.64 0.02 1015.5
20200219100037 0 0.0 0.0 0.01 0.64 0.02 1015.5
20200219094552 0 0.0 0.0 0.01 0.64 0.02 1015.1
20200219093052 0 0.0 0.0 0.01 0.64 0.02 1014.9
20200219091527 33 0.0 2.0 0.01 0.64 0.02 96 1014.7
20200219090034 34 327 0.0 1.0 0.00 0.63 0.01 97 1014.5
20200219084513 34 173 0.0 1.0 0.00 0.63 0.01 97 1014.5
20200219083101 34 75 0.0 1.0 0.00 0.63 0.01 97 1014.1
20200219081528 33 252 0.0 2.0 0.01 0.63 0.01 97 1014.3
20200219080006 33 251 0.0 1.0 0.01 0.63 0.01 97 1014.1
20200219074509 33 109 0.0 1.0 0.01 0.63 0.01 97 1013.8
20200219073008 33 166 0.0 1.0 0.01 0.63 0.01 97 1013.2
20200219071505 33 176 0.0 1.0 0.01 0.63 0.01 97 1013.1
20200219070005 33 11 0.0 1.0 0.00 0.62 0.00 96 1013.6
20200219064824 33 195 0.0 0.0 0.00 0.62 0.00 97 1013.6
20200219063145 33 257 0.0 1.0 0.00 0.62 0.00 96 1013.2
20200219061640 33 198 0.0 0.0 0.00 0.62 0.00 96 1013.2
20200219060249 33 173 0.0 1.0 0.00 0.62 0.00 96 1013.2
20200219054557 33 70 0.0 1.0 0.00 0.62 0.00 96 1013.6
20200219053116 33 9 0.0 0.0 0.01 0.62 0.00 96 1013.4
20200219051613 33 246 0.0 0.0 0.01 0.62 0.00 96 1013.0
20200219050221 33 295 0.0 0.0 0.01 0.62 0.00 96 1013.0
20200219044633 33 323 0.0 0.0 0.01 0.62 0.62 96 1013.5
20200219043126 33 148 0.0 0.0 0.00 0.61 0.61 96 1013.7
20200219041616 33 29 0.0 0.0 0.00 0.61 0.61 96 1013.4
20200219040159 33 118 0.0 0.0 0.01 0.61 0.61 96 1013.7
20200219034626 33 309 0.0 0.0 0.01 0.61 0.61 96 1013.9
20200219033108 33 240 0.0 0.0 0.01 0.61 0.61 96 1013.8
20200219031628 33 14 0.0 0.0 0.02 0.61 0.61 96 1014.0
20200219030048 33 249 0.0 0.0 0.02 0.61 0.61 96 1014.3
20200219024559 33 313 0.0 0.0 0.02 0.60 0.60 96 1014.6
20200219023045 33 66 0.0 0.0 0.03 0.60 0.60 96 1014.9
20200219021550 33 314 0.0 0.0 0.04 0.59 0.59 96 1015.1
20200219020109 33 276 0.0 0.0 0.06 0.59 0.59 96 1015.4
20200219014609 33 154 0.0 1.0 0.07 0.57 0.57 96 1015.7
20200219013056 33 279 0.0 2.0 0.08 0.56 0.56 96 1015.9
20200219011559 33 107 1.0 3.0 0.11 0.55 0.55 96 1016.3
20200219010105 33 61 0.0 3.0 0.14 0.53 0.53 96 1016.5
20200219004530 33 351 1.0 3.0 0.16 0.51 0.51 96 1016.6
20200219003031 33 41 0.0 2.0 0.17 0.49 0.49 96 1017.5
20200219001540 33 96 1.0 3.0 0.17 0.45 0.45 96 1017.8
20200219000047 34 235 0.0 1.0 0.16 0.40 0.40 95 1018.1